Temp
14 14 14 14 14 14 14 15 15 15 15 15 15 16 17 19 21 22 21 24 24 24 24 25 26 25 25 24 25 23 22 20 22 25 26 26 26 27 23 22 20 19 21 21 18
14 13 13 13 13 14 14 15 15 15 14 14 15 15 17 18 19 19 24 24 24 24 24 23 23 23 22 23 23 23 19 22 23 25 26 27 26 26 26 22 20 19 20 19 18
14 14 13 12 14 14 14 13 15 14 14 15 15 15 17 17 17 22 24 24 24 24 24 23 23 23 23 23 23 23 22 24 24 25 26 28 27 26 27 25 21 19 18 19 19
14 14 13 13 13 13 13 14 14 13 13 13 14 15 16 17 20 24 23 23 23 24 24 24 23 22 23 22 23 22 23 24 24 25 25 26 27 27 25 27 25 19 19 19 18
13 13 13 13 13 13 13 14 14 14 13 13 13 14 14 14 17 24 23 22 23 23 23 23 22 23 22 22 22 23 23 23 23 23 24 25 25 25 25 24 21 20 19 19 19
12 12 12 12 13 13 13 14 14 14 14 13 12 13 13 13 21 23 22 22 22 22 23 23 22 22 22 22 22 22 22 21 22 22 23 24 24 25 25 20 20 19 18 19 19
11 11 11 11 11 12 13 14 14 14 13 13 12 12 11 14 22 22 22 21 22 22 21 23 23 23 22 21 23 22 21 21 22 23 23 24 23 23 23 21 20 20 19 19 19
9 9 10 10 10 10 11 13 14 14 13 13 12 11 11 19 20 19 20 20 22 22 23 23 24 22 22 21 21 21 20 20 23 23 23 23 21 23 23 21 20 20 20 20 19
9 9 9 9 9 10 11 14 14 14 14 12 11 11 12 18 18 22 22 20 22 23 23 24 23 20 21 20 17 18 17 19 20 22 22 22 21 23 25 22 20 20 20 20 17
8 8 9 9 9 10 11 14 16 15 13 11 11 12 14 19 21 21 22 22 21 21 21 21 19 18 17 16 17 17 17 19 20 21 23 22 21 21 21 21 21 20 19 19 17
8 8 8 9 9 9 11 14 12 12 12 13 14 14 17 19 20 20 20 21 21 21 19 19 17 17 19 17 19 19 19 19 20 21 22 21 21 21 22 22 19 19 19 18 18
8 8 8 8 9 9 10 9 12 12 10 14 14 15 16 17 16 18 20 19 20 18 19 18 18 19 20 19 18 18 18 19 20 22 21 21 20 20 21 21 20 18 19 19 14
8 8 8 9 9 10 10 11 11 12 10 13 15 15 16 17 16 17 19 19 18 17 17 17 19 20 20 19 19 19 19 19 20 21 21 21 21 22 22 22 22 19 21 19 16
8 8 8 8 9 9 10 10 11 12 9 12 14 16 17 18 17 19 19 18 17 17 17 17 19 19 20 20 20 19 21 21 21 20 18 22 20 21 22 21 22 20 19 20 17
8 8 8 8 7 8 9 10 12 12 8 16 17 19 19 17 19 19 20 17 17 17 18 17 18 18 18 19 20 19 20 20 20 19 19 19 18 20 21 21 21 21 20 20 17
8 8 8 8 8 9 10 11 11 6 8 14 17 18 18 18 18 19 18 19 18 17 16 17 18 18 18 19 19 19 19 19 20 18 17 19 19 20 19 20 22 23 23 19 16
8 8 7 8 8 9 9 10 7 7 14 16 17 17 16 16 17 17 17 16 15 15 14 16 16 18 19 18 19 18 18 15 16 15 17 19 19 20 20 22 20 20 21 17 15
8 7 8 8 8 8 8 9 7 11 12 16 16 16 15 17 17 17 16 15 14 14 12 13 14 16 16 17 17 18 17 14 16 17 18 19 18 19 21 20 17 15 14 13 12
7 7 6 8 8 8 7 7 7 11 14 14 15 15 15 16 15 15 15 15 16 15 13 11 13 15 17 16 17 17 17 18 16 16 14 15 17 20 19 17 16 14 13 12 10
6 6 6 8 8 7 6 8 8 12 13 13 12 14 12 13 13 13 14 15 15 16 14 14 12 15 16 16 17 17 17 16 13 14 14 15 16 16 15 15 14 13 11 11 10
6 6 7 7 8 6 7 7 9 11 12 11 12 11 12 11 13 13 14 14 14 15 14 14 11 13 15 15 14 14 13 13 13 13 13 14 14 15 13 14 14 13 12 11 11
5 5 7 6 6 5 6 7 10 10 11 10 10 11 11 11 11 12 13 13 14 14 13 13 12 11 13 16 15 14 13 11 12 12 12 13 13 12 12 14 13 13 14 13 12
4 4 6 7 6 6 6 8 9 10 10 11 11 11 12 11 10 11 12 13 14 14 13 13 11 9 12 13 13 11 9 9 10 10 11 11 12 12 13 12 12 12 12 12 11
3 3 3 4 5 5 6 6 7 10 10 10 10 11 10 10 10 10 11 13 12 13 13 12 11 11 10 11 12 11 11 12 11 9 11 11 12 14 13 13 13 12 11 11 11
1 3 4 4 5 5 6 6 7 8 9 10 10 10 10 9 10 10 10 11 11 10 12 11 9 9 11 11 11 12 13 13 11 12 11 13 14 14 15 14 14 14 13 12 12
1 1 2 4 4 5 5 6 6 8 6 8 9 10 10 9 10 9 9 9 9 9 8 8 8 9 10 11 12 11 12 12 12 13 14 13 13 14 14 14 14 14 14 15 13
1 2 2 2 0 2 2 5 6 6 8 8 8 9 8 9 8 9 9 9 9 9 7 7 6 8 9 10 10 7 10 11 8 12 13 11 13 13 13 14 14 13 15 15 14
Height
840 839 838 837 836 834 830 828 826 825 821 817 813 808 804 799 791 786 783 779 779 779 777 774 771 769 767 766 765 768 795 804 792 783 773 754 754 742 747 754 757 757 757 758 772
838 837 836 835 834 833 830 827 824 823 820 816 812 808 804 798 791 784 778 776 778 777 776 774 773 770 773 770 769 777 800 789 774 765 766 755 755 750 752 760 764 761 756 760 768
835 835 834 834 831 831 828 826 823 821 818 813 810 807 803 798 792 779 777 776 776 776 775 773 772 774 775 771 771 775 786 770 766 759 756 751 751 748 749 758 756 759 760 760 765
834 833 833 831 828 829 826 823 821 819 818 814 809 806 803 799 804 775 777 778 776 773 774 773 772 777 779 780 771 782 769 766 761 755 757 754 745 748 749 746 740 747 746 755 762
832 831 829 829 826 825 823 820 819 817 816 814 809 805 801 802 789 776 775 775 776 773 771 772 775 775 781 775 771 773 765 761 757 755 753 748 751 750 746 741 740 751 757 757 762
830 828 827 824 824 822 820 818 814 814 813 813 810 806 804 806 776 773 774 771 772 773 769 770 771 771 774 771 774 766 767 763 758 756 753 752 747 745 742 743 746 750 755 759 760
829 825 823 822 820 819 817 814 811 810 810 809 809 807 801 785 774 772 770 769 768 770 769 767 767 770 769 773 763 764 774 764 756 751 752 746 756 750 737 741 745 750 752 754 756
828 825 822 820 818 817 813 811 808 806 807 807 806 807 793 771 770 767 764 762 763 763 763 764 764 765 767 765 768 774 774 779 749 750 745 751 766 741 732 741 743 743 746 747 748
825 824 821 820 818 813 809 807 804 803 803 804 806 805 788 768 766 761 761 760 758 759 758 758 761 767 767 777 790 782 791 780 765 746 748 751 759 735 722 733 741 741 742 744 750
823 822 820 818 819 812 807 803 798 797 799 801 803 808 779 766 761 760 759 756 758 756 757 758 766 776 780 787 795 789 785 772 772 748 746 750 751 737 728 729 733 736 739 743 747
821 819 817 818 817 812 807 802 800 799 797 792 790 784 770 765 762 756 757 759 758 758 769 762 775 780 768 775 772 773 773 774 761 748 750 749 744 738 727 729 737 735 736 739 743
818 816 816 815 813 813 810 809 809 809 800 786 782 776 771 770 770 755 757 764 763 771 764 771 768 760 759 765 770 771 772 767 754 745 746 745 743 735 728 730 727 730 731 732 745
818 816 813 812 810 808 811 812 808 805 803 779 769 761 760 761 757 754 757 760 766 770 770 770 757 751 754 758 764 761 764 761 758 746 738 740 734 730 724 721 718 722 717 723 731
816 816 815 810 811 808 808 808 807 805 811 778 763 751 747 752 754 742 742 755 760 763 764 760 750 753 751 753 757 756 747 743 743 751 762 735 744 731 723 724 719 719 721 720 726
815 812 814 813 812 811 809 805 804 806 839 760 751 743 741 751 743 742 737 746 755 758 759 749 751 752 752 750 746 745 741 742 740 746 746 745 761 730 723 726 720 712 711 710 718
815 812 814 814 811 811 809 804 805 834 824 763 747 747 747 745 745 741 743 741 744 752 753 747 741 745 744 739 741 741 744 741 737 747 760 732 749 728 734 725 711 701 697 703 712
812 812 812 812 811 810 807 806 824 832 772 759 751 754 758 753 747 747 749 752 760 766 766 751 745 735 735 744 737 744 752 770 761 762 749 731 742 720 714 709 707 703 691 697 708
808 808 807 809 807 812 809 811 824 784 771 753 760 752 760 750 745 745 747 754 757 760 771 768 759 738 742 739 736 734 743 766 757 750 739 725 737 727 709 707 710 710 709 714 725
804 805 805 802 807 810 814 813 805 778 768 766 763 762 755 753 759 755 754 751 742 745 762 776 760 739 735 736 732 730 735 730 745 742 756 747 729 713 711 718 720 722 720 720 732
801 802 801 801 804 807 810 801 791 772 768 768 774 766 770 765 768 765 761 752 748 742 744 756 766 742 735 730 725 725 722 740 752 758 758 743 737 737 730 728 728 731 734 736 739
800 801 795 797 802 801 791 793 782 772 774 776 770 774 772 774 766 769 760 756 754 750 747 751 764 751 743 742 740 738 747 745 744 748 753 749 744 742 743 737 735 733 735 738 741
797 800 793 796 801 797 785 783 775 769 772 774 772 774 774 773 773 766 761 757 753 752 754 756 757 765 751 735 734 740 750 760 751 749 748 743 743 749 748 749 745 742 734 743 747
794 793 790 792 790 787 782 775 775 769 767 767 767 765 766 770 777 762 755 752 752 752 753 755 764 781 754 746 745 755 767 772 766 769 760 759 748 747 748 750 753 747 748 751 753
796 794 791 788 785 785 782 777 774 764 765 766 766 766 769 769 767 765 758 754 754 750 748 753 761 762 767 759 755 755 755 751 757 770 753 759 747 739 743 743 737 737 741 745 747
792 791 788 784 781 779 779 774 772 767 763 758 760 761 763 768 762 760 757 756 754 758 753 756 765 761 752 749 753 750 746 744 750 749 756 745 739 728 729 736 732 728 725 733 735
791 792 789 784 783 778 777 768 768 761 769 759 755 755 754 758 756 757 759 759 758 760 764 765 766 761 757 747 746 744 740 741 738 736 737 737 734 727 727 727 723 720 719 718 723
786 786 788 784 788 786 782 770 766 766 755 757 758 755 756 750 751 752 752 756 757 759 767 768 771 765 757 747 749 772 741 742 752 735 737 743 728 725 722 716 714 715 710 707 710
Wind_Speed
12 12 13 14 16 18 19 20 22 25 25 27 29 31 31 33 34 27 7 4 3 6 12 16 18 20 11 2 2 4 2 4 4 2 6 7 8 6 4 7 4 7 7 13 31
13 15 14 15 18 17 20 23 23 23 25 26 29 32 31 33 30 18 4 3 3 8 12 10 7 11 5 4 4 3 3 8 7 4 5 5 3 5 4 2 3 3 12 35 33
12 12 12 15 15 17 20 24 25 23 24 24 27 29 30 28 6 5 3 1 5 9 8 7 8 2 2 3 2 1 4 4 8 10 6 3 6 3 4 4 8 11 20 23 28
12 13 14 15 17 21 23 23 25 25 25 25 23 25 27 10 7 3 3 18 8 6 8 5 3 6 3 5 1 5 7 5 5 3 4 3 2 7 5 4 6 20 25 22 21
14 14 15 18 20 21 23 22 23 23 24 23 23 22 14 4 11 28 20 17 14 9 6 3 5 1 4 5 6 3 5 8 10 8 5 3 5 6 8 5 11 14 15 19 17
16 16 17 17 19 21 22 23 22 23 22 22 21 17 3 8 13 10 12 9 13 15 10 3 4 5 6 3 2 3 9 11 7 9 5 5 7 3 4 9 13 18 16 16 18
14 14 15 17 18 20 23 24 22 20 20 16 16 9 4 19 23 32 28 28 21 20 7 15 10 2 4 7 2 5 7 9 11 5 5 1 7 8 7 13 17 15 16 16 17
12 13 14 15 16 19 21 24 22 20 20 17 10 3 8 14 19 28 24 29 24 20 21 20 15 3 4 4 7 6 5 4 9 4 9 7 10 15 7 13 16 18 17 18 18
11 13 14 15 18 19 22 23 23 21 18 11 4 4 12 10 11 13 13 14 16 16 19 21 8 5 3 1 5 2 5 6 10 8 6 8 9 18 17 17 14 16 15 14 8
9 12 14 15 18 19 22 23 21 17 3 1 3 3 9 4 2 20 11 13 7 6 6 2 2 4 1 4 9 5 5 7 7 7 1 7 9 10 10 12 17 16 14 12 13
8 10 12 14 17 18 23 8 6 3 1 7 4 6 11 9 21 11 16 13 5 0 5 4 4 10 17 8 7 10 14 14 16 15 6 9 6 10 9 4 9 13 14 13 16
7 9 11 13 15 18 13 2 5 7 8 14 19 20 31 21 9 20 16 1 3 4 4 6 15 10 10 10 11 14 17 19 16 15 8 10 7 9 7 7 8 12 14 16 9
10 9 10 13 16 5 7 7 14 11 5 6 14 9 8 19 18 25 5 2 7 9 8 14 7 7 14 16 16 17 16 16 17 9 8 2 13 4 5 4 5 8 17 16 22
10 10 11 15 3 11 3 16 13 8 4 7 5 7 6 5 7 11 24 12 5 11 10 13 8 16 18 14 11 21 12 19 21 6 6 5 16 6 3 7 6 8 11 14 18
10 8 8 9 12 5 10 15 11 2 4 4 5 3 1 8 2 3 5 4 16 12 5 9 8 4 8 8 7 15 7 11 11 5 2 5 3 2 3 6 8 10 11 17 20
11 8 9 5 3 4 15 9 1 5 8 5 4 4 2 3 3 3 4 4 2 3 6 16 16 10 4 7 4 7 7 5 3 3 5 10 8 15 6 7 11 16 18 12 19
13 11 11 9 3 10 15 4 4 4 4 4 2 6 11 5 4 7 5 2 3 1 5 11 13 13 16 18 18 5 3 4 6 4 10 6 5 15 6 13 6 13 16 10 20
13 13 15 15 13 11 10 2 6 5 8 15 10 13 4 5 7 6 4 6 3 4 3 4 7 3 9 11 8 15 9 6 7 9 11 1 6 5 4 6 6 11 13 15 15
10 13 16 21 14 7 1 6 8 6 4 5 12 6 4 3 4 7 7 4 9 10 8 1 6 10 12 2 3 8 10 7 6 2 1 4 4 7 7 7 8 10 12 17 16
7 4 10 19 15 8 5 12 6 4 7 7 2 4 4 7 7 7 4 5 5 1 5 5 6 6 4 6 6 2 3 4 1 4 5 5 2 5 5 6 7 8 8 11 13
4 3 3 11 15 4 8 10 9 17 7 3 2 3 1 9 1 4 5 4 5 4 1 5 5 5 6 3 3 6 5 5 2 3 5 3 2 12 14 8 7 9 10 12 15
5 4 4 13 5 3 5 7 8 17 6 8 10 8 5 4 7 4 6 4 3 0 2 0 2 4 6 6 2 5 2 1 3 2 3 5 3 5 10 11 13 12 11 6 4
2 2 4 7 6 10 5 13 8 12 4 4 6 5 3 3 4 3 3 2 6 5 3 2 2 4 6 3 5 7 3 2 4 2 2 3 2 2 4 6 2 7 10 9 8
2 2 2 2 6 10 8 8 9 13 16 12 10 10 12 11 7 6 5 4 2 4 9 4 4 7 9 3 2 2 4 6 6 2 2 5 15 11 9 9 8 13 13 12 15
2 4 2 2 4 11 14 9 15 17 17 11 6 16 14 8 11 10 3 3 2 7 1 1 6 5 10 10 9 10 8 8 9 11 8 15 14 15 4 10 12 10 9 14 15
4 2 2 5 6 6 7 6 15 17 4 11 13 16 15 14 14 9 3 3 1 3 2 4 3 2 8 15 7 9 10 9 7 9 10 11 11 7 8 9 9 13 11 12 15
3 3 1 3 1 1 3 5 8 14 12 18 22 17 15 13 7 5 7 4 5 4 0 3 1 2 5 9 3 5 10 9 4 4 6 6 11 7 10 8 3 5 10 15 13
Wind_Direction
315 318 322 322 323 327 329 329 334 333 334 336 337 337 339 334 325 326 267 238 229 307 325 330 332 340 337 319 209 118 62 272 253 268 298 317 358 18 38 89 46 345 145 147 150
314 313 317 313 317 320 321 323 326 325 328 333 336 335 336 335 327 300 277 183 267 319 326 335 319 346 339 300 335 102 155 241 223 209 243 295 355 304 93 100 38 45 96 137 146
310 307 303 306 313 316 318 320 323 327 323 328 333 334 335 334 328 256 170 100 321 317 312 296 288 270 269 334 313 105 221 263 263 242 229 217 295 184 347 257 198 170 152 153 149
303 304 304 306 312 310 312 313 317 320 321 325 332 334 335 339 290 312 227 324 293 300 303 312 354 339 288 301 17 313 241 248 275 332 311 245 253 294 168 258 238 172 164 159 162
294 296 298 304 304 304 306 309 313 317 319 324 326 336 348 340 251 278 277 294 279 279 262 269 301 281 261 286 327 223 284 329 302 290 261 282 228 250 274 206 122 146 162 164 167
291 292 296 298 300 303 303 304 307 309 311 318 318 333 345 273 274 302 299 296 289 275 271 262 246 285 263 261 183 285 304 291 278 288 278 261 279 124 265 136 140 154 169 175 177
294 296 301 306 305 303 303 301 303 306 308 314 317 327 246 251 268 289 283 282 278 271 276 278 268 205 333 322 269 291 299 311 287 272 274 21 306 246 215 166 158 171 179 180 187
307 310 310 311 310 311 308 302 301 306 305 309 309 279 252 267 294 283 274 281 277 271 271 278 255 230 192 271 337 316 312 279 263 256 263 123 263 271 218 171 178 179 186 187 190
310 310 313 311 311 313 309 301 300 299 293 297 279 199 269 305 279 293 284 252 272 278 273 261 233 224 264 222 342 248 247 239 303 198 244 167 242 249 246 180 187 186 189 190 166
317 319 319 317 316 319 315 307 303 284 295 262 253 299 267 268 316 322 306 270 241 274 335 154 130 182 261 126 232 228 220 248 230 288 271 278 254 273 254 163 189 190 189 187 177
321 329 328 323 319 325 329 342 1 8 170 208 195 251 294 299 315 296 312 330 275 242 247 269 168 209 228 195 220 252 267 267 275 275 283 262 251 274 280 234 175 199 194 187 184
305 326 328 324 324 321 318 1 2 286 292 253 261 252 257 269 291 284 294 68 305 253 291 287 247 238 242 228 221 238 252 263 271 270 258 253 260 260 272 226 200 186 196 186 139
291 310 324 325 327 9 337 331 342 349 266 246 229 242 229 220 238 251 253 250 223 259 238 242 230 219 219 238 248 247 245 257 253 258 270 303 276 216 246 247 222 211 196 176 167
280 298 319 328 328 337 118 346 336 340 302 274 241 256 196 206 280 222 233 206 218 238 248 261 202 238 258 248 242 260 254 258 260 226 250 197 277 223 227 264 248 219 205 197 182
272 281 299 322 318 338 331 334 330 38 317 245 196 182 136 165 273 355 243 135 221 231 190 234 291 254 247 231 221 273 278 266 257 222 157 209 225 90 226 253 269 273 211 207 182
262 272 282 299 292 313 341 333 32 53 249 288 166 189 81 219 280 345 32 46 148 186 238 259 254 246 239 269 247 299 292 268 261 154 212 229 198 267 225 219 249 258 273 199 173
258 259 257 263 255 326 343 358 68 191 295 251 126 33 340 275 260 187 206 220 177 149 282 289 253 251 233 253 268 209 257 288 241 206 245 150 200 246 234 268 235 253 270 181 156
257 246 243 250 258 308 347 74 210 226 235 302 329 328 283 308 294 210 189 218 138 115 13 318 321 35 337 224 236 220 191 208 250 240 255 230 227 255 54 20 58 74 89 97 117
249 242 244 245 241 258 58 211 216 203 250 321 328 303 319 25 10 19 329 253 199 175 166 136 262 315 327 334 281 231 214 216 234 222 134 257 297 296 36 33 83 99 111 124 123
232 238 240 252 227 201 205 230 244 248 317 348 279 265 352 339 339 23 301 3 356 144 124 184 280 267 299 339 335 27 211 225 17 172 226 246 244 245 41 81 81 86 92 99 109
206 261 253 217 197 209 215 215 243 254 291 272 267 307 318 310 191 290 268 9 322 8 299 134 177 287 345 299 228 359 356 4 89 162 202 233 180 32 36 2 122 117 115 125 130
163 233 172 175 195 228 216 211 221 261 245 239 235 240 234 279 285 271 227 203 329 247 37 330 217 272 243 253 52 63 340 75 244 78 320 282 196 15 30 27 52 58 72 72 61
221 266 231 170 234 234 211 220 239 259 209 219 210 191 196 262 281 246 260 201 204 199 205 198 32 329 315 37 58 79 113 230 141 272 143 329 30 213 181 271 53 31 64 68 84
134 262 270 212 231 242 272 251 252 250 258 244 262 268 272 265 244 272 247 278 274 228 152 118 186 190 246 207 57 237 207 234 204 154 186 216 278 247 229 249 198 179 185 184 171
148 229 248 258 238 231 245 252 251 266 239 265 239 236 237 252 258 243 291 272 234 319 219 132 215 201 258 264 241 242 257 230 210 257 269 273 267 272 201 218 203 219 199 198 196
153 177 237 269 305 273 274 212 238 246 282 241 240 243 249 245 237 254 162 195 148 49 12 332 254 44 267 263 267 281 275 272 266 259 252 259 263 279 234 228 201 205 217 223 199
157 204 140 252 237 327 226 289 300 307 257 249 263 267 279 243 204 205 185 178 173 143 136 204 180 67 266 256 322 313 240 232 188 230 233 254 274 297 289 300 302 261 228 220 215